Home   Weather   Cheongju   Past weeks

Flag for South Korea Past Weather in Cheongju, South Korea — Yesterday and Last 2 Weeks

Now
70 °F

Partly sunny.


Feels Like: 70 °F
Forecast: 63 / 69 °F
Wind: 7 mph from East

Location: Chongju Ab

Current Time: Sep 29, 2016 at 12:19:52 PM

Latest Report: Sep 29, 2016 at 11:00 AM


Visibility: N/A

Pressure: 30.04 "Hg

Humidity: 73%

Dew Point: 61 °F

Location of CheongjuLocation

Past Weather in Cheongju — Graph

°F

Cheongju Temperature Yesterday

Maximum temperature yesterday: 79 °F (at 2:00 PM)
Minimum temperature yesterday: 64 °F (at 5:00 AM)
Average temperature yesterday: 71 °F

High & Low Weather Summary for the Past Weeks

 TemperatureHumidityPressure
High84 °F (Sep 14, 3:00 PM)100% (Sep 15, 3:00 AM)30.21 "Hg (Sep 15, 3:00 AM)
Low50 °F (Sep 21, 5:00 AM)42% (Sep 20, 3:00 PM)29.80 "Hg (Sep 17, 3:00 PM)
Average69 °F81%29.98 "Hg
* Reported Sep 14 11:00 AM — Sep 29 11:00 AM, Cheongju, Weather by CustomWeather, © 2016

Note: Actual official high and low records may vary slightly from our data, if they occured in-between our weather recording intervals... More about our weather records

Advertising

Cheongju Weather History for the Previous 24 Hours

Scroll right to see more
 ConditionsComfort  
Time TempWeatherWind HumidityBarometerVisibility
11:00 AM
Thu, Sep 29
70 °FPartly sunny.7 mph73%30.04 "HgN/A
10:00 AM70 °FPartly sunny.8 mph69%30.04 "HgN/A
9:00 AM70 °FPartly sunny.7 mph78%30.01 "HgN/A
8:01 AM68 °FPartly sunny.6 mph83%30.01 "HgN/A
7:00 AM66 °FPartly sunny.5 mph88%29.98 "HgN/A
6:00 AM66 °FPassing clouds.5 mph88%29.98 "HgN/A
5:00 AM68 °FPassing clouds.3 mph88%29.95 "Hg5 mi
4:00 AM68 °FPassing clouds.3 mph88%29.95 "Hg4 mi
3:00 AM70 °FPassing clouds.2 mph88%29.95 "Hg4 mi
2:00 AM70 °FPassing clouds.2 mph88%29.95 "Hg4 mi
1:00 AM70 °FPassing clouds.1 mph88%29.95 "Hg4 mi
12:00 AM70 °FPassing clouds.1 mph88%29.95 "Hg4 mi
11:00 PM
Wed, Sep 28
70 °FPassing clouds.1 mph88%29.95 "Hg4 mi
10:00 PM70 °FPassing clouds.1 mph88%29.95 "Hg4 mi
9:00 PM72 °FPassing clouds.1 mph83%29.95 "Hg4 mi
8:00 PM72 °FPassing clouds.1 mph83%29.95 "Hg4 mi
7:00 PM72 °FPartly cloudy.3 mph83%29.92 "Hg5 mi
6:00 PM73 °FClear.3 mph78%29.92 "Hg5 mi
5:00 PM77 °FPartly sunny.5 mph69%29.92 "Hg6 mi
4:00 PM77 °FPartly sunny.6 mph69%29.92 "Hg6 mi
3:00 PM79 °FPartly sunny.6 mph65%29.92 "HgN/A
2:00 PM79 °FPartly sunny.5 mph61%29.92 "HgN/A
1:00 PM77 °FPartly sunny.3 mph65%29.95 "HgN/A
12:00 PM77 °FPartly sunny.3 mph69%29.95 "Hg6 mi
Weather by CustomWeather, © 2016

See weather overviewHow to use our weather pages